{"data":{"norad_id":46355,"intl_designator":"2020-062AG","name":"STARLINK-1661","alt_names":[],"object_type":"PAYLOAD","status":"ACTIVE","operator":null,"country":"US","launch_date":"2020-09-03","launch_site_code":"AFETR","launch_vehicle":null,"mission":null,"orbit_class":"UNKNOWN","rcs_meters":null,"size_class":null,"mass_kg":null,"dimensions":null,"purposes":["comms"],"wikipedia_slug":null,"has_3d_model":false,"image_url":null,"decayed_at":null,"tle_current":{"epoch":"2026-09-20T03:59:56.889888Z","epoch_age_seconds":50687,"freshness":"FRESH","line1":"1 46355U 20062AG  26263.16663067  .00051996  00000+0  97103-3 0  9999","line2":"2 46355  53.1507 175.4195 0003789 122.6998 237.4377 15.48274466334349","mean_motion":15.48274466,"eccentricity":0.0003789,"inclination_deg":53.1507,"raan_deg":175.4195,"arg_perigee_deg":122.6998,"mean_anomaly_deg":237.4377,"bstar":0.00097103,"rev_number":33434,"period_min":93.006765377993,"perigee_km":419.19717668748,"apogee_km":424.35014898777,"semimajor_km":6799.9106628376,"source":"CELESTRAK","updated_at":"2026-09-20T09:00:38.584543Z"}}}